FW8324 Weather Reports


time (UTC)temp
F
wind
direction
speed
knots
gust
knots
rain 1hr
in
rain 24hr
in
rain mn
in
humidity
%
barometer
mb
20260503213053 83 305 0.9 4.3 0.00 0.00 0.00 39 1010.6
20260503211553 82 283 1.7 7.0 0.00 0.00 0.00 39 1010.8
20260503210051 82 261 1.7 8.7 0.00 0.00 0.00 40 1011.0
20260503204555 81 272 2.6 7.8 0.00 0.00 0.00 41 1011.1
20260503203055 80 9 2.6 8.7 0.00 0.00 0.00 42 1011.3
20260503201558 80 266 1.7 7.0 0.00 0.00 0.00 42 1011.4
20260503200047 78 296 1.7 7.0 0.00 0.00 0.00 43 1011.6
20260503194554 79 305 2.6 7.8 0.00 0.00 0.00 43 1011.8
20260503193058 78 277 1.7 6.1 0.00 0.00 0.00 44 1012.1
20260503191550 77 265 0.9 6.1 0.00 0.00 0.00 45 1012.3
20260503190057 75 302 0.9 7.0 0.00 0.00 0.00 49 1012.4
20260503184602 74 302 1.7 6.1 0.00 0.00 0.00 50 1012.5
20260503183050 74 23 0.9 7.0 0.00 0.00 0.00 50 1012.7
20260503181552 73 289 1.7 4.3 0.00 0.00 0.00 54 1012.8
20260503180058 71 12 1.7 8.7 0.00 0.00 0.00 58 1012.9
20260503174606 70 11 1.7 5.2 0.00 0.00 0.00 58 1012.9
20260503173057 69 333 1.7 6.1 0.00 0.00 0.00 61 1013.2
20260503171553 68 92 1.7 5.2 0.00 0.00 0.00 61 1013.1
20260503100110 57 0 0.9 2.6 0.00 0.00 0.00 78 1013.4
20260503081553 60 90 0.9 2.6 0.00 0.00 0.00 67 1013.6
20260503071549 63 105 1.7 3.5 0.00 0.00 0.00 59 1013.5
20260503054549 65 0 0.0 0.9 0.00 0.00 0.00 53 1013.4
20260503053049 65 0 0.9 3.5 0.00 0.00 0.00 52 1013.5
20260503051549 65 78 0.0 1.7 0.00 0.00 0.00 52 1013.4
20260503050049 66 0 0.0 1.7 0.00 0.00 0.00 52 1013.4
20260503044553 67 350 0.0 2.6 0.00 0.00 0.00 52 1013.4
20260503043048 67 0 0.0 4.3 0.00 0.00 0.00 50 1013.3
20260503041551 68 351 0.9 3.5 0.00 0.00 0.00 49 1013.2
20260503040048 68 25 0.9 3.5 0.00 0.00 0.00 49 1013.1
20260503034603 69 0 0.9 3.5 0.00 0.00 0.00 49 1012.8
20260503033054 70 45 0.0 7.8 0.00 0.00 0.00 50 1012.7
20260503031553 70 31 1.7 6.1 0.00 0.00 0.00 49 1012.4
20260503030050 71 20 1.7 7.0 0.00 0.00 0.00 50 1012.3
20260503024551 72 49 0.9 5.2 0.00 0.00 0.00 51 1012.2
20260503023049 73 259 0.9 8.7 0.00 0.00 0.00 51 1012.1
20260503021550 74 287 1.7 7.8 0.00 0.00 0.00 51 1012.1
20260503020048 74 299 0.0 6.1 0.00 0.00 0.00 53 1012.0
20260503014600 74 311 2.6 7.0 0.00 0.00 0.00 52 1012.0
20260503013046 75 254 2.6 7.8 0.00 0.00 0.00 51 1012.0
20260503011547 75 270 2.6 7.0 0.00 0.00 0.00 51 1012.1
20260503010045 76 276 1.7 8.7 0.00 0.00 0.00 50 1012.0
20260503004543 76 295 2.6 9.6 0.00 0.00 0.00 48 1012.0
20260503003056 76 300 3.5 9.6 0.00 0.00 0.00 49 1012.1
20260503001604 77 277 2.6 7.8 0.00 0.00 0.00 47 1012.2
20260503000051 77 299 2.6 6.1 0.00 0.00 0.00 47 1012.3
20260502234551 77 97 2.6 7.0 0.00 0.00 0.00 47 1012.4
20260502233050 76 47 3.5 9.6 0.00 0.00 0.00 47 1012.6
20260502231552 77 270 4.3 11.3 0.00 0.00 0.00 46 1012.8
20260502230053 78 291 2.6 7.0 0.00 0.00 0.00 46 1013.0
20260502224549 76 292 1.7 11.3 0.00 0.00 0.00 49 1013.1
20260502223048 76 277 1.7 10.4 0.00 0.00 0.00 51 1013.4
20260502221551 75 287 1.7 6.1 0.00 0.00 0.00 52 1013.5
20260502220051 75 38 2.6 9.6 0.00 0.00 0.00 54 1013.6
20260502214558 74 14 1.7 7.8 0.00 0.00 0.00 55 1013.7